Jefferson, NC

7:04 PM EST on December 15, 2019 (GMT -0500)
Ashe County

Weather History for KGEV - October, 2019

Change the Weather History Date:

Sunday, October 27, 2019

  Actual Average Record
Temperature  
Mean Temperature 60 °F -  
Max Temperature 66 °F 62 °F 76 °F (1991)
Min Temperature 51 °F 34 °F 17 °F (1988)
Degree Days  
Heating Degree Days 6    
Growing Degree Days 10 (Base 50)    
Moisture  
Dew Point 54 °F    
Average Humidity 82    
Maximum Humidity 100    
Minimum Humidity 54    
Precipitation  
Precipitation 0.89 in - - ()
Sea Level Pressure  
Sea Level Pressure 29.99 in    
Wind  
Wind Speed 8 mph ()    
Max Wind Speed 24 mph    
Max Gust Speed 30 mph    
Visibility 8.0 miles    
Events Rain    
Averages and records for this station are not official NWS values.
T = Trace of Precipitation, MM = Missing Value Source: Averaged Metar Reports

Daily Weather History Graph

Daily Weather History Graph

Search for Another Location

Airport or City:

Astronomy

Oct. 27, 2019 Rise Set
Actual Time 7:43 AM EDT 6:34 PM EDT
Civil Twilight 7:17 AM EDT 7:01 PM EDT
Nautical Twilight 6:47 AM EDT 7:31 PM EDT
Astronomical Twilight 6:17 AM EDT 8:01 PM EDT
Moon 6:53 AM EDT (10/27) 6:41 PM EDT (10/27)
Length of Visible Light 11h 43m
Length of Day
10h 51m
Waning Crescent, 0% of the Moon is Illuminated
Oct 27
Waning Crescent
Oct 27
New
Nov 4
First Quarter
Nov 12
Full
Nov 19
Last Quarter

Hourly Weather History & Observations

Time (EDT) Temp. Dew Point Humidity Pressure Visibility Wind Dir Wind Speed Gust Speed Precip Events Conditions
12:15 AM 58.6 °F 58.6 °F 100% 29.95 in 1.8 mi SE 5.8 mph - 0.03 in Rain Rain
12:35 AM 59.0 °F 59.0 °F 100% 29.95 in 2.0 mi SE 4.6 mph - 0.10 in Rain Heavy Rain
12:55 AM 59.2 °F 59.2 °F 100% 29.93 in 2.0 mi SSE 5.8 mph - 0.16 in Rain Rain
1:15 AM 59.5 °F 59.5 °F 100% 29.92 in 2.5 mi SE 10.4 mph - 0.04 in Rain Heavy Rain
1:35 AM 59.9 °F 59.9 °F 100% 29.93 in 3.0 mi SSE 8.1 mph - 0.06 in Rain Rain
1:55 AM 59.9 °F 59.9 °F 100% 29.91 in 1.0 mi SSE 4.6 mph - 0.08 in Rain Heavy Rain
2:15 AM 59.9 °F 59.9 °F 100% 29.91 in 1.2 mi SSE 5.8 mph - 0.02 in Rain Rain
2:35 AM 60.1 °F 60.1 °F 100% 29.90 in 2.0 mi SSE 8.1 mph - 0.04 in Rain Rain
2:55 AM 60.3 °F 60.3 °F 100% 29.89 in 1.8 mi SSE 8.1 mph - 0.06 in Rain Light Rain
3:15 AM 60.8 °F 60.8 °F 100% 29.87 in 1.5 mi SSE 6.9 mph - 0.03 in Rain Rain
3:35 AM 61.0 °F 61.0 °F 100% 29.88 in 1.8 mi South 6.9 mph - 0.04 in   Heavy Drizzle
3:55 AM 61.3 °F 61.3 °F 100% 29.88 in 7.0 mi South 4.6 mph - 0.05 in Rain Rain
4:15 AM 61.3 °F 61.3 °F 100% 29.86 in 2.5 mi SSE 4.6 mph - 0.02 in Rain Heavy Rain
4:35 AM 61.9 °F 61.9 °F 100% 29.86 in 1.2 mi South 5.8 mph - 0.13 in Rain Heavy Rain
4:55 AM 62.6 °F 62.6 °F 100% 29.85 in 2.5 mi SSE 6.9 mph - 0.20 in Rain Heavy Rain
5:15 AM 63.1 °F 63.1 °F 100% 29.86 in 4.0 mi South 6.9 mph 28.8 mph 0.06 in Rain Heavy Rain
5:35 AM 64.4 °F 63.5 °F 97% 29.89 in 7.0 mi WSW 9.2 mph 23.0 mph 0.10 in Rain Rain
5:55 AM 63.0 °F 62.8 °F 99% 29.89 in 4.0 mi WSW 8.1 mph - 0.33 in Rain Rain
6:15 AM 63.1 °F 61.9 °F 96% 29.90 in 10.0 mi West 12.7 mph - 0.01 in   Overcast
6:35 AM 62.8 °F 61.3 °F 95% 29.90 in 10.0 mi West 11.5 mph - 0.01 in   Overcast
6:55 AM 63.0 °F 60.8 °F 93% 29.90 in 7.0 mi West 15.0 mph 27.6 mph 0.01 in   Overcast
7:15 AM 61.5 °F 59.4 °F 93% 29.92 in 10.0 mi West 24.2 mph 29.9 mph N/A   Overcast
7:35 AM 59.9 °F 57.4 °F 91% 29.92 in 10.0 mi West 18.4 mph 27.6 mph N/A   Overcast
7:55 AM 58.5 °F 57.0 °F 95% 29.93 in 10.0 mi West 20.7 mph 26.5 mph N/A   Overcast
8:15 AM 57.6 °F 55.9 °F 94% 29.95 in 10.0 mi West 20.7 mph 28.8 mph N/A   Overcast
8:35 AM 57.2 °F 55.4 °F 94% 29.96 in 10.0 mi West 17.3 mph 26.5 mph N/A   Overcast
8:55 AM 56.7 °F 54.1 °F 91% 29.96 in 10.0 mi West 18.4 mph 26.5 mph N/A   Mostly Cloudy
9:15 AM 56.7 °F 53.8 °F 90% 29.97 in 10.0 mi West 18.4 mph 25.3 mph N/A   Overcast
9:35 AM 56.5 °F 53.2 °F 89% 29.98 in 10.0 mi West 16.1 mph 26.5 mph N/A   Mostly Cloudy
9:55 AM 57.4 °F 53.4 °F 87% 29.98 in 10.0 mi West 15.0 mph 20.7 mph N/A   Scattered Clouds
10:15 AM 57.6 °F 53.4 °F 86% 29.99 in 10.0 mi West 16.1 mph 26.5 mph N/A   Mostly Cloudy
10:35 AM 57.2 °F 53.1 °F 86% 30.00 in 10.0 mi Calm Calm - N/A   Overcast
10:55 AM 58.1 °F 51.6 °F 79% 29.99 in 10.0 mi West 15.0 mph 19.6 mph N/A   Mostly Cloudy
11:15 AM 58.8 °F 50.5 °F 74% 29.99 in 10.0 mi West 13.8 mph 21.9 mph N/A   Clear
11:35 AM 60.1 °F 50.7 °F 71% 30.00 in 10.0 mi West 10.4 mph - N/A   Clear
12:15 PM 62.4 °F 50.7 °F 66% 30.01 in 10.0 mi NNW 5.8 mph - N/A   Clear
12:35 PM 62.4 °F 49.6 °F 63% 30.01 in 10.0 mi NNW 10.4 mph - N/A   Clear
12:55 PM 63.1 °F 50.5 °F 63% 30.01 in 10.0 mi NW 5.8 mph - N/A   Clear
1:15 PM 63.0 °F 49.1 °F 61% 30.01 in 10.0 mi NW 10.4 mph - N/A   Clear
1:35 PM 63.9 °F 50.0 °F 61% 30.00 in 10.0 mi NW 3.5 mph - N/A   Clear
1:55 PM 65.1 °F 49.5 °F 57% 29.99 in 10.0 mi West 3.5 mph - N/A   Clear
2:15 PM 66.7 °F 49.5 °F 54% 29.99 in 10.0 mi WNW 4.6 mph - N/A   Clear
2:35 PM 65.5 °F 48.7 °F 55% 30.00 in 10.0 mi NW 10.4 mph 18.4 mph N/A   Clear
2:55 PM 65.3 °F 49.8 °F 57% 30.00 in 10.0 mi WNW 4.6 mph - N/A   Clear
3:15 PM 65.7 °F 50.5 °F 58% 30.01 in 10.0 mi NW 10.4 mph - N/A   Clear
3:35 PM 65.5 °F 50.4 °F 58% 30.01 in 10.0 mi NW 5.8 mph - N/A   Clear
3:55 PM 65.3 °F 50.4 °F 58% 30.02 in 10.0 mi West 5.8 mph - N/A   Clear
4:15 PM 65.5 °F 50.9 °F 59% 30.02 in 10.0 mi WNW 5.8 mph - N/A   Clear
4:35 PM 65.1 °F 50.4 °F 59% 30.02 in 10.0 mi NW 5.8 mph - N/A   Clear
4:55 PM 64.2 °F 50.0 °F 60% 30.03 in 10.0 mi NW 8.1 mph - N/A   Clear
5:15 PM 63.5 °F 50.5 °F 63% 30.03 in 10.0 mi NNW 5.8 mph - N/A   Clear
5:35 PM 63.1 °F 50.7 °F 64% 30.04 in 10.0 mi WNW 5.8 mph - N/A   Clear
6:15 PM 61.0 °F 50.2 °F 68% 30.05 in 10.0 mi WNW 4.6 mph - N/A   Clear
6:35 PM 60.3 °F 50.2 °F 69% 30.06 in 10.0 mi WNW 6.9 mph - N/A   Clear
6:55 PM 59.2 °F 50.2 °F 72% 30.06 in 10.0 mi WNW 5.8 mph - N/A   Clear
7:15 PM 58.5 °F 50.2 °F 74% 30.07 in 10.0 mi NW 4.6 mph - N/A   Clear
7:35 PM 57.4 °F 50.4 °F 77% 30.07 in 10.0 mi NNW 5.8 mph - N/A   Clear
7:55 PM 57.9 °F 50.4 °F 76% 30.08 in 10.0 mi NW 8.1 mph - N/A   Clear
8:15 PM 57.2 °F 50.4 °F 78% 30.09 in 10.0 mi NW 3.5 mph - N/A   Clear
8:35 PM 56.5 °F 50.4 °F 80% 30.09 in 10.0 mi West 4.6 mph - N/A   Clear
8:55 PM 55.6 °F 50.2 °F 82% 30.09 in 10.0 mi West 4.6 mph - N/A   Clear
9:35 PM 55.0 °F 50.2 °F 84% 30.10 in 10.0 mi West 5.8 mph - N/A   Clear
9:55 PM 54.7 °F 50.0 °F 84% 30.10 in 10.0 mi WNW 4.6 mph - N/A   Clear
10:15 PM 54.0 °F 50.0 °F 86% 30.11 in 10.0 mi West 5.8 mph - N/A   Clear
10:35 PM 54.1 °F 50.0 °F 86% 30.11 in 10.0 mi West 4.6 mph - N/A   Clear
11:15 PM 53.6 °F 49.8 °F 87% 30.12 in 10.0 mi Calm Calm - N/A   Clear
11:35 PM 53.2 °F 50.0 °F 89% 30.11 in 10.0 mi Calm Calm - N/A   Clear
11:55 PM 51.8 °F 49.6 °F 92% 30.11 in 10.0 mi Calm Calm - N/A   Clear